DW6471 Weather Reports


Display with metric or nautical units.
time (UTC)temp
F
wind
direction
speed
MPH
gust
MPH
rain 1hr
in
rain 24hr
in
rain mn
in
humidity
%
barometer
mb
20260510041049 67 25 0.0 0.0 0.00 0.42 0.42 95 1014.0
20260510040547 67 25 0.0 0.0 0.00 0.42 0.42 95 1014.1
20260510040046 67 25 0.0 0.0 0.00 0.42 0.42 95 1014.1
20260510035546 67 25 0.0 1.0 0.00 0.42 0.42 95 1014.2
20260510035318 67 25 0.0 1.0 0.00 0.42 0.42 95 1014.1
20260510034547 67 25 0.0 1.0 0.00 0.42 0.42 95 1013.9
20260510034046 67 25 0.0 1.0 0.00 0.42 0.42 95 1014.0
20260510033547 67 25 0.0 1.0 0.00 0.42 0.42 95 1014.2
20260510033316 68 25 0.0 1.0 0.00 0.42 0.42 95 1014.1
20260510032546 68 25 0.0 1.0 0.00 0.42 0.42 95 1014.1
20260510032046 68 25 0.0 0.0 0.00 0.42 0.42 95 1014.1
20260510031546 68 25 0.0 0.0 0.00 0.42 0.42 95 1014.0
20260510031044 68 25 0.0 1.0 0.00 0.42 0.42 95 1014.0
20260510030544 68 25 0.0 1.0 0.00 0.42 0.42 95 1013.9
20260510030047 68 25 0.0 0.0 0.00 0.42 0.42 95 1013.7
20260510030043 68 25 0.0 0.0 0.00 0.42 0.42 95 1013.7
20260510025043 68 25 0.0 0.0 0.00 0.42 0.42 95 1013.7
20260510024542 68 25 0.0 1.0 0.00 0.42 0.42 95 1013.7
20260510024042 68 25 0.0 1.0 0.00 0.42 0.42 95 1013.5
20260510023542 68 358 0.0 2.0 0.00 0.42 0.42 95 1013.5
20260510023042 68 358 0.0 2.0 0.00 0.43 0.42 95 1013.5
20260510022542 68 47 1.0 2.0 0.00 0.44 0.42 95 1013.4
20260510022040 68 72 1.0 2.0 0.00 0.44 0.42 95 1013.2
20260510021540 68 97 0.0 2.0 0.00 0.44 0.42 95 1013.3
20260510021040 68 61 0.0 2.0 0.01 0.45 0.42 95 1013.3
20260510020540 68 68 0.0 1.0 0.01 0.45 0.42 94 1013.7
20260510020040 68 68 0.0 1.0 0.01 0.45 0.42 95 1013.9
20260510015540 68 68 0.0 1.0 0.01 0.45 0.42 95 1013.8
20260510015039 68 68 1.0 2.0 0.01 0.45 0.42 95 1013.7
20260510014538 68 68 1.0 2.0 0.01 0.45 0.42 95 1013.6
20260510014037 68 63 1.0 2.0 0.01 0.45 0.42 94 1013.5
20260510013536 68 63 0.0 2.0 0.01 0.45 0.42 94 1013.5
20260510013308 69 55 0.0 2.0 0.01 0.45 0.42 94 1013.5
20260510013141 69 55 1.0 2.0 0.01 0.46 0.42 94 1013.4
20260510012640 69 71 1.0 2.0 0.01 0.47 0.42 94 1013.3
20260510011541 69 60 0.0 1.0 0.00 0.46 0.41 94 1013.6
20260510011537 69 74 0.0 2.0 0.01 0.47 0.42 94 1013.4
20260510010536 69 60 0.0 1.0 0.00 0.47 0.41 94 1013.5
20260510010307 69 60 0.0 2.0 0.00 0.47 0.41 94 1013.6
20260510005536 69 71 0.0 2.0 0.01 0.48 0.41 94 1013.5
20260510005034 69 88 0.0 1.0 0.01 0.48 0.41 94 1013.3
20260510004805 69 78 0.0 0.0 0.01 0.48 0.41 94 1013.5
20260510004034 69 78 0.0 0.0 0.01 0.48 0.41 94 1013.6
20260510003534 69 78 0.0 1.0 0.01 0.48 0.41 94 1013.5
20260510003034 69 78 0.0 2.0 0.01 0.48 0.41 94 1013.3
20260510002534 69 78 1.0 3.0 0.01 0.48 0.41 94 1013.3
20260510002039 69 63 1.0 3.0 0.01 0.48 0.41 94 1012.9
20260510002035 69 72 1.0 3.0 0.01 0.48 0.41 94 1013.2
20260510001035 69 44 1.0 3.0 0.01 0.48 0.41 94 1012.8
20260510000533 69 56 1.0 3.0 0.01 0.48 0.41 94 1012.6
20260510000032 69 62 1.0 2.0 0.01 0.48 0.41 94 1012.6
20260509235533 69 73 1.0 2.0 0.01 0.47 0.40 94 1012.6
20260509235032 69 34 0.0 1.0 0.01 0.47 0.40 94 1012.7
20260509234532 69 35 0.0 1.0 0.01 0.47 0.40 94 1012.7
20260509234032 69 34 0.0 2.0 0.01 0.47 0.40 94 1012.7
20260509233802 69 65 1.0 2.0 0.01 0.47 0.40 94 1012.7
20260509233032 69 347 0.0 2.0 0.01 0.47 0.40 94 1012.6
20260509232532 69 53 1.0 5.0 0.01 0.47 0.40 94 1012.4
20260509232032 69 352 2.0 5.0 0.01 0.47 0.40 94 1011.9
20260509231803 69 86 2.0 6.0 0.01 0.47 0.40 94 1011.3
20260509231030 69 61 2.0 6.0 0.01 0.48 0.40 94 1011.2
20260509230530 70 74 2.0 6.0 0.01 0.48 0.40 93 1011.3
20260509230302 70 86 1.0 3.0 0.02 0.48 0.40 93 1011.7
20260509225530 70 160 0.0 1.0 0.01 0.47 0.39 94 1012.0
20260509225030 70 104 0.0 1.0 0.01 0.47 0.39 93 1012.3
20260509224530 70 104 0.0 0.0 0.01 0.47 0.39 93 1012.4
20260509224030 70 104 0.0 0.0 0.01 0.48 0.39 93 1012.5
20260509223530 70 320 0.0 0.0 0.01 0.48 0.39 93 1012.7
20260509223301 70 320 0.0 1.0 0.01 0.49 0.39 93 1012.7
20260509222528 70 319 0.0 1.0 0.01 0.50 0.39 93 1012.5
20260509222028 70 317 0.0 1.0 0.02 0.51 0.39 93 1012.3
20260509221527 70 317 0.0 1.0 0.02 0.52 0.39 93 1012.5
20260509221259 70 317 0.0 1.0 0.02 0.53 0.39 93 1012.4
20260509220528 70 340 0.0 1.0 0.02 0.54 0.39 93 1012.4
20260509220027 70 68 0.0 1.0 0.01 0.54 0.38 93 1012.2
20260509215528 70 100 0.0 1.0 0.01 0.54 0.38 92 1012.0
20260509215258 70 100 0.0 1.0 0.01 0.54 0.38 92 1012.5
20260509214528 70 101 0.0 1.0 0.01 0.54 0.38 92 1012.5
20260509214258 70 101 0.0 1.0 0.01 0.55 0.38 92 1012.6
20260509213526 70 101 0.0 2.0 0.01 0.55 0.38 92 1012.6
20260509213026 70 101 0.0 2.0 0.01 0.56 0.38 92 1012.6
20260509212756 70 322 0.0 2.0 0.01 0.58 0.38 91 1012.6
20260509212026 70 322 0.0 2.0 0.00 0.58 0.37 91 1012.6
20260509211526 70 212 0.0 3.0 0.00 0.59 0.37 91 1012.3
20260509211025 70 212 1.0 3.0 0.00 0.59 0.37 91 1012.2
20260509210526 70 53 1.0 3.0 0.00 0.59 0.37 91 1011.6
20260509210026 70 204 0.0 2.0 0.00 0.61 0.37 91 1011.5
20260509205526 70 27 0.0 2.0 0.00 0.66 0.37 91 1011.9
20260509205026 70 6 0.0 2.0 0.00 0.69 0.37 91 1012.2
20260509204524 70 23 0.0 2.0 0.00 0.72 0.37 91 1012.2
20260509204024 70 23 0.0 2.0 0.00 0.76 0.37 91 1012.2
20260509203528 70 294 1.0 4.0 0.00 0.81 0.37 91 1012.4
20260509203524 70 294 0.0 2.0 0.00 0.81 0.37 91 1012.2
20260509202524 70 84 0.0 4.0 0.00 0.81 0.37 91 1012.0
20260509202024 70 329 0.0 2.0 0.00 0.81 0.37 91 1012.3
20260509201524 70 234 0.0 3.0 0.00 0.82 0.37 91 1012.2
20260509201024 71 283 0.0 3.0 0.00 0.82 0.37 90 1012.0
20260509200524 71 103 1.0 6.0 0.00 0.82 0.37 91 1011.9
20260509200024 71 327 1.0 6.0 0.00 0.82 0.37 90 1011.6
20260509195521 71 317 2.0 5.0 0.00 0.82 0.37 91 1011.3
20260509195022 71 68 2.0 5.0 0.00 0.82 0.37 90 1010.4
20260509194758 72 321 1.0 5.0 0.00 0.82 0.37 89 1011.1
20260509194522 72 223 2.0 5.0 0.00 0.82 0.37 89 1010.9
20260509193522 72 319 1.0 4.0 0.00 0.82 0.37 88 1010.3
20260509193022 72 206 2.0 6.0 0.00 0.82 0.37 88 1009.4
20260509192523 72 86 1.0 6.0 0.00 0.82 0.37 87 1009.4
20260509192022 72 117 1.0 3.0 0.00 0.82 0.37 88 1010.2
20260509191522 72 321 1.0 3.0 0.00 0.82 0.37 87 1010.6
20260509191022 73 314 1.0 3.0 0.00 0.82 0.37 87 1010.7
20260509190522 73 50 1.0 3.0 0.00 0.82 0.37 87 1010.9
20260509190254 73 1 1.0 3.0 0.00 0.82 0.37 86 1011.0
20260509185522 73 6 0.0 2.0 0.00 0.82 0.37 86 1010.6
20260509185022 73 233 1.0 4.0 0.00 0.82 0.37 86 1010.6
20260509184523 73 213 1.0 5.0 0.00 0.82 0.37 86 1010.5
20260509184022 72 82 1.0 5.0 0.00 0.82 0.37 86 1010.4
20260509183522 72 180 1.0 5.0 0.00 0.83 0.37 87 1010.1
20260509183022 72 146 2.0 5.0 0.00 0.83 0.37 88 1010.0
20260509182522 72 155 2.0 6.0 0.00 0.88 0.37 89 1010.0
20260509182020 71 94 3.0 9.0 0.00 0.88 0.37 91 1010.1
20260509181751 71 101 4.0 9.0 0.00 0.88 0.37 91 1010.2
20260509181630 69 70 3.0 6.0 0.02 0.88 0.37 94 1011.1
20260509181024 70 96 3.0 10.0 0.01 0.88 0.37 93 1010.8
20260509181020 70 117 4.0 10.0 0.01 0.88 0.37 93 1010.3
20260509175520 69 70 2.0 5.0 0.02 0.88 0.37 94 1011.6
20260509175020 69 101 2.0 5.0 0.02 0.88 0.37 94 1011.8
20260509174519 68 88 3.0 6.0 0.03 0.88 0.37 94 1012.2
20260509174018 68 84 3.0 6.0 0.03 0.88 0.37 94 1012.4
20260509173518 68 109 3.0 7.0 0.05 0.88 0.37 95 1012.6
20260509173019 67 69 3.0 7.0 0.07 0.88 0.37 95 1012.7
20260509172748 67 89 3.0 7.0 0.09 0.88 0.37 95 1012.9
20260509172018 67 70 3.0 6.0 0.12 0.88 0.37 95 1013.1
20260509171518 66 81 2.0 5.0 0.14 0.88 0.37 95 1013.5
20260509171018 66 71 2.0 5.0 0.14 0.87 0.36 95 1013.8
20260509170518 66 98 2.0 5.0 0.15 0.87 0.36 95 1014.2
20260509170018 66 140 2.0 5.0 0.17 0.86 0.35 95 1014.3
20260509165518 66 112 2.0 5.0 0.18 0.86 0.35 95 1014.3
20260509165018 66 84 1.0 4.0 0.20 0.86 0.35 95 1014.4
20260509164518 65 95 1.0 3.0 0.20 0.85 0.34 95 1014.6
20260509164022 65 87 1.0 3.0 0.25 0.83 0.33 95 1015.2
20260509164018 65 103 1.0 3.0 0.22 0.85 0.34 95 1014.9
20260509163018 65 117 0.0 2.0 0.23 0.81 0.30 95 1015.3
20260509162749 66 146 1.0 3.0 0.21 0.79 0.28 95 1015.5
20260509162018 66 173 1.0 3.0 0.18 0.76 0.25 95 1015.5
20260509161748 65 217 1.0 3.0 0.16 0.75 0.24 95 1015.5
20260509161018 65 71 1.0 3.0 0.15 0.75 0.22 95 1015.3
20260509160518 65 160 0.0 1.0 0.14 0.74 0.21 95 1015.5
20260509160018 65 174 0.0 1.0 0.11 0.73 0.19 95 1015.4
20260509155518 65 84 0.0 2.0 0.10 0.72 0.17 95 1015.4
20260509155017 65 84 0.0 2.0 0.08 0.70 0.16 95 1015.0
20260509154518 65 40 0.0 2.0 0.07 0.69 0.14 95 1014.9
20260509154018 65 342 0.0 3.0 0.05 0.67 0.12 95 1014.9
20260509153515 65 1 0.0 3.0 0.00 0.62 0.11 95 1014.7
20260509153015 0 0.0 0.0 0.00 0.62 0.07 1014.7
20260509152737 0 0.0 0.0 0.00 0.62 0.07 1014.7
20260509151912 0 0.0 0.0 0.00 0.62 0.07 1014.9
20260509151412 0 0.0 0.0 0.00 0.62 0.07 1014.9
20260509150819 0 0.0 0.0 0.00 0.62 0.07 1015.0
20260509150313 0 0.0 0.0 0.00 0.62 0.07 1014.8
20260509145718 0 0.0 0.0 0.00 0.62 0.07 1015.0
20260509145216 0 0.0 0.0 0.00 0.62 0.07 1015.1
20260509144716 0 0.0 0.0 0.00 0.62 0.07 1014.9
20260509144214 0 0.0 0.0 0.00 0.62 0.07 1014.5
20260509143715 0 0.0 0.0 0.00 0.62 0.07 1014.2
20260509143210 0 0.0 0.0 0.00 0.62 0.07 1014.1
20260509142616 0 0.0 0.0 0.00 0.62 0.07 1014.0
20260509142116 0 0.0 0.0 0.00 0.62 0.07 1014.0
20260509141614 0 0.0 0.0 0.00 0.62 0.07 1013.9
20260509141114 0 0.0 0.0 0.00 0.62 0.07 1013.9
20260509140845 0 0.0 0.0 0.00 0.62 0.07 1013.8
20260509140111 0 0.0 0.0 0.00 0.62 0.07 1013.2
20260509135517 0 0.0 0.0 0.00 0.62 0.07 1013.0
20260509135016 0 0.0 0.0 0.00 0.62 0.07 1013.1
20260509134517 0 0.0 0.0 0.00 0.62 0.07 1013.1
20260509134015 0 0.0 0.0 0.00 0.62 0.07 1013.2
20260509133515 0 0.0 0.0 0.00 0.62 0.07 1013.3
20260509133247 0 0.0 0.0 0.00 0.62 0.07 1013.2
20260509132506 0 0.0 0.0 0.00 0.62 0.07 1013.2
20260509131912 0 0.0 0.0 0.00 0.62 0.07 1013.1
20260509131408 0 0.0 0.0 0.00 0.62 0.07 1013.0
20260509130816 0 0.0 0.0 0.00 0.62 0.07 1012.8
20260509130316 0 0.0 0.0 0.00 0.62 0.07 1012.6
20260509125814 0 0.0 0.0 0.00 0.62 0.07 1012.5
20260509125308 0 0.0 0.0 0.00 0.62 0.07 1012.5
20260509124806 0 0.0 0.0 0.00 0.62 0.07 1012.5
20260509124218 0 0.0 0.0 0.00 0.62 0.07 1012.2
20260509123950 0 0.0 0.0 0.00 0.62 0.07 1011.7
20260509123218 0 0.0 0.0 0.00 0.62 0.07 1011.6
20260509122713 0 0.0 0.0 0.00 0.62 0.07 1011.6
20260509122208 0 0.0 0.0 0.00 0.62 0.07 1011.6
20260509121616 0 0.0 0.0 0.00 0.62 0.07 1011.6
20260509121017 0 0.0 0.0 0.00 0.62 0.07 1011.3
20260509120513 0 0.0 0.0 0.00 0.62 0.07 1011.0
20260509120014 0 0.0 0.0 0.00 0.62 0.07 1011.0
20260509115745 0 0.0 0.0 0.00 0.62 0.07 1011.0
20260509115014 0 0.0 0.0 0.00 0.62 0.07 1010.9
20260509114500 0 0.0 0.0 0.00 0.62 0.07 1010.8
20260509114137 0 0.0 0.0 0.00 0.62 0.07 1010.7
20260509113316 0 0.0 0.0 0.00 0.62 0.07 1010.8
20260509112811 0 0.0 0.0 0.00 0.62 0.07 1010.5
20260509112312 0 0.0 0.0 0.00 0.62 0.07 1010.6
20260509111718 0 0.0 0.0 0.00 0.62 0.07 1010.7
20260509111213 0 0.0 0.0 0.00 0.62 0.07 1010.8
20260509110620 0 0.0 0.0 0.00 0.62 0.07 1010.7
20260509110116 0 0.0 0.0 0.00 0.62 0.07 1010.4
20260509105614 0 0.0 0.0 0.00 0.62 0.07 1010.3
20260509105114 0 0.0 0.0 0.00 0.62 0.07 1010.1
20260509104614 0 0.0 0.0 0.00 0.62 0.07 1010.2
20260509104019 0 0.0 0.0 0.00 0.62 0.07 1010.4
20260509103517 0 0.0 0.0 0.00 0.62 0.07 1010.5
20260509103245 0 0.0 0.0 0.00 0.62 0.07 1009.9
20260509102737 0 0.0 1.0 0.00 0.62 0.07 1009.8
20260509101912 66 69 0.0 2.0 0.00 0.62 0.07 94 1009.7
20260509101345 66 69 0.0 2.0 0.00 0.62 0.07 94 1009.2
20260509100846 66 69 0.0 2.0 0.00 0.62 0.07 94 1009.0
20260509100343 67 80 0.0 2.0 0.00 0.62 0.07 95 1009.1
20260509095843 67 164 0.0 1.0 0.00 0.62 0.07 95 1009.2
20260509095614 67 164 0.0 0.0 0.00 0.62 0.07 94 1009.1
20260509094843 67 164 0.0 1.0 0.00 0.62 0.07 94 1009.3
20260509094341 67 164 0.0 1.0 0.00 0.62 0.07 94 1009.5
20260509093842 67 164 0.0 1.0 0.00 0.62 0.07 94 1009.6
20260509093340 67 164 0.0 1.0 0.00 0.62 0.07 94 1009.8
20260509092840 67 164 0.0 1.0 0.00 0.62 0.07 95 1009.9
20260509092340 67 164 0.0 1.0 0.01 0.62 0.07 95 1010.2
20260509091839 67 164 0.0 1.0 0.01 0.62 0.07 95 1010.3
20260509091339 67 164 0.0 1.0 0.02 0.62 0.07 95 1010.4
20260509090838 67 40 0.0 1.0 0.02 0.62 0.07 95 1010.4
20260509090337 67 40 1.0 3.0 0.03 0.62 0.07 95 1010.4
20260509085838 67 62 1.0 4.0 0.04 0.62 0.07 95 1010.1
20260509085609 66 218 1.0 5.0 0.04 0.62 0.07 95 1009.6
20260509084838 66 108 1.0 5.0 0.05 0.62 0.07 95 1009.3
20260509084338 66 121 1.0 4.0 0.05 0.62 0.07 95 1009.6
20260509083837 66 257 1.0 4.0 0.05 0.62 0.07 95 1009.4
20260509083338 66 167 1.0 3.0 0.06 0.62 0.07 95 1010.3
20260509082837 66 86 1.0 3.0 0.06 0.62 0.07 95 1010.5
20260509082336 66 129 0.0 2.0 0.05 0.61 0.06 95 1010.8
20260509081836 66 93 1.0 5.0 0.05 0.61 0.06 95 1011.0
20260509081335 66 94 1.0 5.0 0.04 0.60 0.05 95 1011.3
20260509080834 66 108 0.0 3.0 0.04 0.60 0.05 95 1011.9
20260509080606 66 148 0.0 0.0 0.03 0.59 0.04 95 1012.7
20260509075834 66 148 0.0 0.0 0.02 0.58 0.04 95 1013.2
20260509075332 66 148 0.0 0.0 0.02 0.58 0.03 95 1013.2
20260509074831 66 148 0.0 0.0 0.01 0.57 0.02 95 1013.0
20260509074332 66 148 0.0 0.0 0.01 0.57 0.02 95 1012.7
20260509073830 66 148 0.0 1.0 0.01 0.57 0.02 95 1012.6
20260509073329 66 148 0.0 1.0 0.00 0.56 0.01 95 1012.4
20260509072830 66 148 0.0 1.0 0.00 0.56 0.01 95 1012.3
20260509072327 66 72 0.0 0.0 0.00 0.56 0.01 95 1012.3
20260509071827 66 71 0.0 0.0 0.00 0.56 0.01 95 1012.3
20260509071326 66 72 0.0 1.0 0.00 0.56 0.01 94 1012.4
20260509071057 66 72 0.0 1.0 0.00 0.56 0.01 94 1012.3
20260509070326 66 72 0.0 1.0 0.00 0.56 0.01 94 1012.0
20260509065823 66 72 0.0 1.0 0.00 0.56 0.01 94 1011.9
20260509065323 66 71 0.0 2.0 0.00 0.56 0.01 94 1011.9
20260509064822 66 72 0.0 2.0 0.00 0.56 0.01 94 1011.7
20260509064322 66 72 0.0 1.0 0.00 0.56 0.01 94 1011.6
20260509063821 66 71 0.0 1.0 0.00 0.56 0.01 94 1011.7
20260509063320 66 40 0.0 2.0 0.00 0.56 0.01 94 1011.8
20260509062824 66 79 1.0 2.0 0.00 0.56 0.01 94 1011.6
20260509062820 66 40 1.0 2.0 0.00 0.56 0.01 94 1011.8
20260509061818 66 79 1.0 4.0 0.00 0.56 0.01 94 1011.7
20260509061318 66 120 1.0 4.0 0.00 0.56 0.01 94 1011.6
20260509060817 66 64 1.0 4.0 0.01 0.56 0.01 94 1011.6
20260509060316 66 98 0.0 2.0 0.01 0.56 0.01 94 1011.8
20260509055816 66 115 0.0 1.0 0.01 0.56 0.01 94 1012.3
20260509055315 66 115 0.0 1.0 0.01 0.56 0.01 94 1012.4
20260509054815 66 115 0.0 2.0 0.01 0.56 0.01 94 1012.6
20260509054316 66 115 0.0 2.0 0.01 0.56 0.01 94 1012.6
20260509054046 66 65 0.0 1.0 0.01 0.56 0.01 94 1012.5
20260509053316 66 65 0.0 1.0 0.01 0.56 0.01 94 1012.6
20260509052816 66 65 0.0 1.0 0.01 0.56 0.01 94 1012.7
20260509052315 66 65 0.0 1.0 0.01 0.56 0.01 94 1012.5
20260509051816 66 65 0.0 2.0 0.01 0.56 0.01 94 1012.4
20260509051547 66 65 1.0 2.0 0.01 0.56 0.01 94 1012.5
20260509050816 66 65 0.0 2.0 0.00 0.55 0.00 94 1012.7
20260509050316 66 54 0.0 2.0 0.00 0.55 0.00 94 1012.7
20260509045816 66 74 1.0 3.0 0.00 0.55 0.55 94 1012.9
20260509045320 66 263 0.0 1.0 0.00 0.55 0.55 94 1012.8
20260509045316 66 65 1.0 3.0 0.00 0.55 0.55 94 1012.9
20260509044314 66 262 0.0 1.0 0.00 0.55 0.55 94 1012.9
20260509043818 67 262 0.0 2.0 0.00 0.55 0.55 94 1012.9
20260509043814 67 262 0.0 2.0 0.00 0.55 0.55 94 1012.8
20260509042814 67 238 0.0 2.0 0.00 0.55 0.55 94 1013.0
20260509042315 67 72 0.0 1.0 0.00 0.55 0.55 94 1012.4
20260509041814 67 72 0.0 4.0 0.00 0.55 0.55 93 1012.4
20260509041314 67 339 1.0 4.0 0.00 0.55 0.55 93 1012.6